Home > Weather > Loughton > Past weeks

Flag for United Kingdom Past Weather in Loughton, England, United Kingdom — Yesterday and Last 2 Weeks

Now
62 °F

Cool.


Feels Like: 62 °F
Forecast: 62 / 73 °F
Wind: 6 mph from West

Location: Gravesend-Broadness

Current Time: Jul 26, 2016 at 9:27:11 AM

Latest Report: Jul 26, 2016 at 8:00 AM


Visibility: N/A

Pressure: 30.17 "Hg

Humidity: 79%

Dew Point: 55 °F

Location of LoughtonLocation

Past Weather in Loughton — Graph

°F

Loughton Temperature Yesterday

Maximum temperature yesterday: 75 °F (at 1:00 PM)
Minimum temperature yesterday: 61 °F (at 6:00 AM)
Average temperature yesterday: 68 °F

High & Low Weather Summary for the Past Weeks

 TemperatureHumidityPressure
High89 °F (Jul 19, 4:00 PM)99% (Jul 19, 5:00 AM)30.32 "Hg (Jul 19, 5:00 AM)
Low52 °F (Jul 15, 12:00 AM)39% (Jul 18, 4:00 PM)29.71 "Hg (Jul 11, 8:00 AM)
Average67 °F73%30.07 "Hg
* Reported Jul 11 8:00 AM — Jul 26 8:00 AM, Loughton, Weather by CustomWeather, © 2016

Note: Actual official high and low records may vary slightly from our data, if they occured in-between our weather recording intervals... More about our weather records

Advertising

Loughton Weather History for the Previous 24 Hours

Scroll right to see more
 ConditionsComfort  
Time TempWeatherWind HumidityBarometerVisibility
8:00 AM
Tue, Jul 26
62 °FCool.6 mph79%30.17 "HgN/A
7:00 AM60 °FCool.7 mph83%30.16 "HgN/A
6:00 AM59 °FCool.9 mph85%30.14 "HgN/A
5:00 AM59 °FCool.8 mph84%30.14 "HgN/A
4:00 AM60 °FCool.8 mph79%30.14 "HgN/A
3:00 AM62 °FCool.10 mph74%30.14 "HgN/A
2:00 AM64 °FMild.10 mph70%30.14 "HgN/A
1:00 AM65 °FMild.10 mph67%30.13 "HgN/A
12:00 AM66 °FMild.14 mph71%30.13 "HgN/A
11:00 PM
Mon, Jul 25
67 °FMild.9 mph67%30.12 "HgN/A
10:00 PM68 °FMild.6 mph56%30.12 "HgN/A
9:00 PM69 °FMild.9 mph54%30.10 "HgN/A
8:00 PM70 °FMild.8 mph52%30.09 "HgN/A
7:00 PM72 °FMild.10 mph48%30.08 "HgN/A
6:00 PM72 °FMild.12 mph49%30.08 "HgN/A
5:00 PM73 °FMild.10 mph50%30.08 "HgN/A
4:00 PM74 °FMild.10 mph44%30.08 "HgN/A
3:00 PM73 °FMild.10 mph46%30.09 "HgN/A
2:00 PM74 °FMild.9 mph49%30.09 "HgN/A
1:00 PM75 °FMild.10 mph50%30.09 "HgN/A
12:00 PM69 °FMild.9 mph57%30.09 "HgN/A
11:00 AM69 °FMild.9 mph65%30.09 "HgN/A
10:00 AM68 °FMild.8 mph70%30.09 "HgN/A
9:00 AM65 °FMild.9 mph75%30.09 "HgN/A
Weather by CustomWeather, © 2016

See weather overviewHow to use our weather pages